Weather History for Natchez, MS

Change the Weather History Date:

Friday, March 22, 2013

  Actual Average Record
Temperature  
Mean Temperature 61 °F -  
Max Temperature 69 °F 70 °F 86 °F (1935)
Min Temperature 53 °F 47 °F 25 °F (1986)
Degree Days  
Heating Degree Days 4    
Growing Degree Days 11 (Base 50)    
Moisture  
Dew Point 53 °F    
Average Humidity 77    
Maximum Humidity 94    
Minimum Humidity 54    
Precipitation  
Precipitation 0.01 in - - ()
Sea Level Pressure  
Sea Level Pressure 29.80 in    
Wind  
Wind Speed 10 mph (SE)    
Max Wind Speed 15 mph    
Max Gust Speed 23 mph    
Visibility 10 miles    
Events      
Averages and records for this station are not official NWS values.
T = Trace of Precipitation, MM = Missing Value Source: NWS Daily Summary

Daily Weather History Graph

Daily Weather History Graph

Search for Another Location

Airport:

Trip Planner

Search our weather history database for the weather conditions in past years. The results will help you decide how hot, cold, wet, or windy it might be!

Date:

Astronomy

Mar. 22, 2013 Rise Set
Actual Time 7:06 AM CDT 7:18 PM CDT
Civil Twilight 6:41 AM CDT 7:42 PM CDT
Nautical Twilight 6:13 AM CDT 8:10 PM CDT
Astronomical Twilight 5:44 AM CDT 8:39 PM CDT
Moon 3:00 PM CDT (3/22) 3:51 AM CDT (3/22)
Length of Visible Light 13h 00m
Length of Day
12h 12m
Waxing Gibbous, 77% of the Moon is Illuminated
Mar 22
Waxing Gibbous
Mar 27
Full
Apr 2
Last Quarter
Apr 10
New
Apr 18
First Quarter

Hourly Weather History & Observations

Time (CDT) Temp. Dew Point Humidity Pressure Visibility Wind Dir Wind Speed Gust Speed Precip Events Conditions
12:15 AM 55.4 °F 39.2 °F 54% 29.84 in 10.0 mi SSE 13.8 mph 19.6 mph N/A   Overcast
12:35 AM 55.4 °F 39.2 °F 54% 29.83 in 10.0 mi SSE 15.0 mph 23.0 mph N/A   Mostly Cloudy
1:15 AM 55.4 °F 39.2 °F 54% 29.82 in 10.0 mi SSE 10.4 mph - N/A   Scattered Clouds
1:35 AM 55.4 °F 42.8 °F 63% 29.81 in 10.0 mi SSE 11.5 mph 16.1 mph N/A   Mostly Cloudy
1:55 AM 55.4 °F 42.8 °F 63% 29.81 in 10.0 mi SSE 11.5 mph - N/A   Overcast
2:15 AM 55.4 °F 42.8 °F 63% 29.80 in 10.0 mi SE 12.7 mph - N/A   Overcast
2:35 AM 55.4 °F 42.8 °F 63% 29.80 in 10.0 mi SE 12.7 mph 19.6 mph N/A   Mostly Cloudy
2:55 AM 53.6 °F 42.8 °F 67% 29.79 in 10.0 mi SE 12.7 mph - N/A   Clear
3:15 AM 53.6 °F 44.6 °F 72% 29.78 in 10.0 mi SE 11.5 mph - N/A   Scattered Clouds
3:35 AM 53.6 °F 44.6 °F 72% 29.79 in 10.0 mi SE 8.1 mph - N/A   Mostly Cloudy
3:55 AM 55.4 °F 44.6 °F 67% 29.79 in 10.0 mi SE 9.2 mph - N/A   Overcast
4:15 AM 55.4 °F 44.6 °F 67% 29.79 in 10.0 mi ESE 8.1 mph - N/A   Overcast
4:35 AM 55.4 °F 44.6 °F 67% 29.78 in 10.0 mi SE 6.9 mph - N/A   Overcast
4:55 AM 55.4 °F 46.4 °F 72% 29.78 in 10.0 mi SE 9.2 mph - N/A   Overcast
5:15 AM 55.4 °F 46.4 °F 72% 29.79 in 10.0 mi SE 11.5 mph - N/A   Overcast
5:35 AM 55.4 °F 46.4 °F 72% 29.79 in 10.0 mi SSE 11.5 mph - N/A   Overcast
6:15 AM 55.4 °F 46.4 °F 72% 29.79 in 10.0 mi SE 12.7 mph 17.3 mph N/A   Overcast
6:35 AM 55.4 °F 46.4 °F 72% 29.79 in 10.0 mi SE 15.0 mph 19.6 mph N/A   Overcast
6:55 AM 55.4 °F 48.2 °F 77% 29.80 in 10.0 mi SSE 10.4 mph 16.1 mph N/A   Overcast
7:15 AM 55.4 °F 48.2 °F 77% 29.80 in 10.0 mi SE 12.7 mph 18.4 mph N/A   Overcast
7:35 AM 55.4 °F 48.2 °F 77% 29.80 in 10.0 mi SE 12.7 mph - N/A   Overcast
7:55 AM 57.2 °F 48.2 °F 72% 29.81 in 10.0 mi SE 10.4 mph - N/A   Overcast
8:15 AM 57.2 °F 48.2 °F 72% 29.81 in 10.0 mi SSE 11.5 mph - N/A   Overcast
8:35 AM 55.4 °F 51.8 °F 88% 29.82 in 10.0 mi SSE 8.1 mph - N/A   Overcast
8:55 AM 55.4 °F 51.8 °F 88% 29.83 in 10.0 mi SSE 11.5 mph - N/A   Overcast
9:15 AM 55.4 °F 51.8 °F 88% 29.83 in 10.0 mi SSE 9.2 mph - N/A   Overcast
9:35 AM 57.2 °F 53.6 °F 88% 29.84 in 10.0 mi South 8.1 mph - N/A   Overcast
9:55 AM 59.0 °F 55.4 °F 88% 29.83 in 10.0 mi South 10.4 mph - N/A   Overcast
10:15 AM 59.0 °F 55.4 °F 88% 29.84 in 10.0 mi South 6.9 mph - N/A   Overcast
10:35 AM 59.0 °F 55.4 °F 88% 29.86 in 10.0 mi North 4.6 mph - N/A   Overcast
10:55 AM 57.2 °F 53.6 °F 88% 29.87 in 10.0 mi ENE 6.9 mph - N/A   Overcast
11:15 AM 57.2 °F 53.6 °F 88% 29.87 in 10.0 mi Calm Calm - 0.01 in   Overcast
11:55 AM 57.2 °F 55.4 °F 94% 29.85 in 10.0 mi ESE 6.9 mph - 0.01 in   Overcast
12:15 PM 59.0 °F 55.4 °F 88% 29.84 in 10.0 mi East 6.9 mph - N/A   Overcast
12:35 PM 57.2 °F 55.4 °F 94% 29.84 in 10.0 mi ESE 6.9 mph - N/A   Overcast
12:55 PM 59.0 °F 55.4 °F 88% 29.83 in 10.0 mi East 6.9 mph - N/A   Overcast
1:15 PM 57.2 °F 55.4 °F 94% 29.83 in 10.0 mi East 8.1 mph - N/A   Overcast
1:35 PM 59.0 °F 55.4 °F 88% 29.83 in 10.0 mi East 5.8 mph - N/A   Overcast
1:55 PM 60.8 °F 55.4 °F 82% 29.81 in 10.0 mi ESE 6.9 mph - N/A   Overcast
2:15 PM 60.8 °F 55.4 °F 82% 29.81 in 10.0 mi ESE 9.2 mph - N/A   Overcast
2:35 PM 60.8 °F 55.4 °F 82% 29.79 in 10.0 mi ESE 5.8 mph - N/A   Overcast
2:55 PM 60.8 °F 57.2 °F 88% 29.78 in 10.0 mi ESE 8.1 mph - N/A   Mostly Cloudy
3:35 PM 64.4 °F 57.2 °F 77% 29.76 in 10.0 mi ESE 6.9 mph - N/A   Scattered Clouds
3:55 PM 66.2 °F 57.2 °F 73% 29.76 in 10.0 mi East 8.1 mph - N/A   Scattered Clouds
4:15 PM 68.0 °F 59.0 °F 73% 29.76 in 10.0 mi East 8.1 mph - N/A   Partly Cloudy
4:35 PM 69.8 °F 59.0 °F 68% 29.75 in 10.0 mi East 8.1 mph - N/A   Clear
4:55 PM 69.8 °F 59.0 °F 68% 29.75 in 10.0 mi ESE 10.4 mph - N/A   Clear
5:15 PM 69.8 °F 60.8 °F 73% 29.75 in 10.0 mi SE 9.2 mph - N/A   Clear
5:35 PM 69.8 °F 60.8 °F 73% 29.75 in 10.0 mi ESE 10.4 mph - N/A   Partly Cloudy
5:55 PM 69.8 °F 60.8 °F 73% 29.74 in 10.0 mi ESE 10.4 mph - N/A   Clear
6:15 PM 69.8 °F 60.8 °F 73% 29.75 in 10.0 mi SE 8.1 mph - N/A   Clear
6:35 PM 68.0 °F 59.0 °F 73% 29.75 in 10.0 mi East 6.9 mph - N/A   Scattered Clouds
6:55 PM 66.2 °F 59.0 °F 78% 29.76 in 10.0 mi East 6.9 mph - N/A   Mostly Cloudy
7:15 PM 66.2 °F 59.0 °F 78% 29.76 in 10.0 mi East 8.1 mph - N/A   Mostly Cloudy
7:35 PM 66.2 °F 59.0 °F 78% 29.76 in 10.0 mi ESE 8.1 mph - N/A   Mostly Cloudy
7:55 PM 64.4 °F 59.0 °F 83% 29.78 in 10.0 mi East 8.1 mph - N/A   Mostly Cloudy
8:15 PM 64.4 °F 57.2 °F 77% 29.78 in 10.0 mi East 8.1 mph - N/A   Mostly Cloudy
8:35 PM 64.4 °F 57.2 °F 77% 29.78 in 10.0 mi East 9.2 mph - N/A   Mostly Cloudy
8:55 PM 64.4 °F 57.2 °F 77% 29.79 in 10.0 mi ESE 9.2 mph - N/A   Mostly Cloudy
9:15 PM 62.6 °F 57.2 °F 82% 29.79 in 10.0 mi ESE 9.2 mph 16.1 mph N/A   Mostly Cloudy
9:35 PM 62.6 °F 55.4 °F 77% 29.80 in 10.0 mi ESE 8.1 mph - N/A   Mostly Cloudy
9:55 PM 62.6 °F 55.4 °F 77% 29.80 in 10.0 mi ESE 8.1 mph - N/A   Mostly Cloudy
10:15 PM 62.6 °F 55.4 °F 77% 29.80 in 10.0 mi SE 10.4 mph - N/A   Partly Cloudy
10:35 PM 62.6 °F 55.4 °F 77% 29.81 in 10.0 mi SE 10.4 mph - N/A   Mostly Cloudy
10:55 PM 62.6 °F 55.4 °F 77% 29.81 in 10.0 mi SE 10.4 mph - N/A   Overcast
11:15 PM 62.6 °F 57.2 °F 82% 29.80 in 10.0 mi SSE 6.9 mph - N/A   Overcast
11:35 PM 62.6 °F 57.2 °F 82% 29.80 in 10.0 mi SSE 9.2 mph - N/A   Overcast
11:55 PM 62.6 °F 57.2 °F 82% 29.80 in 10.0 mi SSE 10.4 mph - N/A   Overcast